date,time,SUV Intensity [MED/Hr],UV Index,Daily total [MED],Since Last [MED]
05/09/2022,00:12:32,0.001,0.0,0.0,0.0
05/09/2022,00:13:40,-0.000,0.0,0.0,0.0
05/09/2022,00:15:32,0.001,0.0,0.0,0.0
05/09/2022,00:16:32,0.000,0.0,0.0,0.0
05/09/2022,00:17:31,0.000,0.0,0.0,0.0
05/09/2022,00:18:32,0.000,0.0,0.0,0.0
05/09/2022,00:19:31,0.000,0.0,0.0,0.0
05/09/2022,00:20:31,0.000,0.0,0.0,0.0
05/09/2022,00:21:31,-0.000,0.0,0.0,0.0
05/09/2022,00:22:31,0.000,0.0,0.0,0.0
05/09/2022,00:23:19,-0.000,0.0,0.0,0.0
05/09/2022,00:24:32,0.000,0.0,0.0,0.0
05/09/2022,00:25:31,-0.000,0.0,0.0,0.0
05/09/2022,00:26:40,0.001,0.0,0.0,0.0
05/09/2022,00:28:32,0.000,0.0,0.0,0.0
05/09/2022,00:29:32,-0.000,0.0,0.0,0.0
05/09/2022,00:30:32,0.001,0.0,0.0,0.0
05/09/2022,00:31:39,-0.000,0.0,0.0,0.0
05/09/2022,00:33:32,-0.000,0.0,0.0,0.0
05/09/2022,00:34:32,0.000,0.0,0.0,0.0
05/09/2022,00:35:31,0.000,0.0,0.0,0.0
05/09/2022,00:36:31,-0.000,0.0,0.0,0.0
05/09/2022,00:37:31,0.000,0.0,0.0,0.0
05/09/2022,00:38:31,-0.000,0.0,0.0,0.0
05/09/2022,00:39:33,0.000,0.0,0.0,0.0
05/09/2022,00:40:31,0.000,0.0,0.0,0.0
05/09/2022,00:41:40,0.000,0.0,0.0,0.0
05/09/2022,00:43:32,0.000,0.0,0.0,0.0
05/09/2022,00:44:32,0.000,0.0,0.0,0.0
05/09/2022,00:45:31,-0.000,0.0,0.0,0.0
05/09/2022,00:46:31,0.001,0.0,0.0,0.0
05/09/2022,00:47:31,0.001,0.0,0.0,0.0
05/09/2022,00:48:32,0.000,0.0,0.0,0.0
05/09/2022,00:49:31,0.000,0.0,0.0,0.0
05/09/2022,00:50:32,-0.000,0.0,0.0,0.0
05/09/2022,00:51:33,0.000,0.0,0.0,0.0
05/09/2022,00:52:31,-0.000,0.0,0.0,0.0
05/09/2022,00:53:31,-0.000,0.0,0.0,0.0
05/09/2022,00:54:31,0.000,0.0,0.0,0.0
05/09/2022,00:55:31,-0.000,0.0,0.0,0.0
05/09/2022,00:56:31,-0.000,0.0,0.0,0.0
05/09/2022,00:57:32,0.000,0.0,0.0,0.0
05/09/2022,00:58:32,0.000,0.0,0.0,0.0
05/09/2022,00:59:40,0.001,0.0,0.0,0.0
05/09/2022,01:01:32,-0.000,0.0,0.0,0.0
05/09/2022,01:02:32,0.000,0.0,0.0,0.0
05/09/2022,01:03:31,-0.000,0.0,0.0,0.0
05/09/2022,01:04:31,-0.000,0.0,0.0,0.0
05/09/2022,01:05:32,0.000,0.0,0.0,0.0
05/09/2022,01:06:31,-0.000,0.0,0.0,0.0
05/09/2022,01:07:31,0.000,0.0,0.0,0.0
05/09/2022,01:08:31,0.000,0.0,0.0,0.0
05/09/2022,01:09:31,0.001,0.0,0.0,0.0
05/09/2022,01:10:31,0.000,0.0,0.0,0.0
05/09/2022,01:11:39,-0.000,0.0,0.0,0.0
05/09/2022,01:13:32,0.000,0.0,0.0,0.0
05/09/2022,01:14:32,-0.000,0.0,0.0,0.0
05/09/2022,01:15:31,0.000,0.0,0.0,0.0
05/09/2022,01:16:32,-0.000,0.0,0.0,0.0
05/09/2022,01:17:32,0.000,0.0,0.0,0.0
05/09/2022,01:18:31,0.000,0.0,0.0,0.0
05/09/2022,01:19:31,0.000,0.0,0.0,0.0
05/09/2022,01:20:32,-0.000,0.0,0.0,0.0
05/09/2022,01:21:33,0.000,0.0,0.0,0.0
05/09/2022,01:22:31,0.000,0.0,0.0,0.0
05/09/2022,01:23:31,-0.000,0.0,0.0,0.0
05/09/2022,01:24:32,0.000,0.0,0.0,0.0
05/09/2022,01:25:32,0.000,0.0,0.0,0.0
05/09/2022,01:26:31,0.000,0.0,0.0,0.0
05/09/2022,01:27:33,0.001,0.0,0.0,0.0
05/09/2022,01:28:32,0.000,0.0,0.0,0.0
05/09/2022,01:29:39,-0.000,0.0,0.0,0.0
05/09/2022,01:31:32,0.000,0.0,0.0,0.0
05/09/2022,01:32:31,0.001,0.0,0.0,0.0
05/09/2022,01:33:32,0.001,0.0,0.0,0.0
05/09/2022,01:34:32,-0.000,0.0,0.0,0.0
05/09/2022,01:35:32,0.000,0.0,0.0,0.0
05/09/2022,01:36:32,0.000,0.0,0.0,0.0
05/09/2022,01:37:31,0.000,0.0,0.0,0.0
05/09/2022,01:38:31,0.001,0.0,0.0,0.0
05/09/2022,01:39:32,-0.000,0.0,0.0,0.0
05/09/2022,01:40:32,0.000,0.0,0.0,0.0
05/09/2022,01:41:32,0.000,0.0,0.0,0.0
05/09/2022,01:42:32,0.000,0.0,0.0,0.0
05/09/2022,01:43:32,0.000,0.0,0.0,0.0
05/09/2022,01:44:32,0.001,0.0,0.0,0.0
05/09/2022,01:45:32,0.000,0.0,0.0,0.0
05/09/2022,01:46:32,0.000,0.0,0.0,0.0
05/09/2022,01:47:31,-0.000,0.0,0.0,0.0
05/09/2022,01:48:32,-0.000,0.0,0.0,0.0
05/09/2022,01:49:32,0.000,0.0,0.0,0.0
05/09/2022,01:50:31,0.000,0.0,0.0,0.0
05/09/2022,01:51:31,-0.000,0.0,0.0,0.0
05/09/2022,01:52:31,-0.000,0.0,0.0,0.0
05/09/2022,01:53:31,0.000,0.0,0.0,0.0
05/09/2022,01:54:31,0.000,0.0,0.0,0.0
05/09/2022,01:55:31,0.001,0.0,0.0,0.0
05/09/2022,01:56:31,-0.000,0.0,0.0,0.0
05/09/2022,01:57:39,0.000,0.0,0.0,0.0
05/09/2022,01:58:31,-0.001,0.0,0.0,0.0
05/09/2022,01:59:31,0.000,0.0,0.0,0.0
05/09/2022,02:00:31,0.000,0.0,0.0,0.0
05/09/2022,02:01:32,0.000,0.0,0.0,0.0
05/09/2022,02:02:32,0.000,0.0,0.0,0.0
05/09/2022,02:03:32,0.000,0.0,0.0,0.0
05/09/2022,02:04:32,-0.001,0.0,0.0,0.0
05/09/2022,02:05:31,0.000,0.0,0.0,0.0
05/09/2022,02:06:31,0.000,0.0,0.0,0.0
05/09/2022,02:07:30,0.000,0.0,0.0,0.0
05/09/2022,02:08:29,0.000,0.0,0.0,0.0
05/09/2022,02:09:32,-0.000,0.0,0.0,0.0
05/09/2022,02:10:32,0.000,0.0,0.0,0.0
05/09/2022,02:11:31,0.000,0.0,0.0,0.0
05/09/2022,02:12:40,0.000,0.0,0.0,0.0
05/09/2022,02:14:32,0.000,0.0,0.0,0.0
05/09/2022,02:15:32,0.000,0.0,0.0,0.0
05/09/2022,02:16:31,0.000,0.0,0.0,0.0
05/09/2022,02:17:31,0.000,0.0,0.0,0.0
05/09/2022,02:18:32,0.001,0.0,0.0,0.0
05/09/2022,02:19:32,0.000,0.0,0.0,0.0
05/09/2022,02:20:32,-0.000,0.0,0.0,0.0
05/09/2022,02:21:32,0.000,0.0,0.0,0.0
05/09/2022,02:22:32,0.000,0.0,0.0,0.0
05/09/2022,02:23:32,0.000,0.0,0.0,0.0
05/09/2022,02:24:31,-0.000,0.0,0.0,0.0
05/09/2022,02:25:29,0.001,0.0,0.0,0.0
05/09/2022,02:26:30,0.000,0.0,0.0,0.0
05/09/2022,02:27:31,0.000,0.0,0.0,0.0
05/09/2022,02:28:40,0.000,0.0,0.0,0.0
05/09/2022,02:30:32,-0.000,0.0,0.0,0.0
05/09/2022,02:31:32,-0.000,0.0,0.0,0.0
05/09/2022,02:32:31,0.000,0.0,0.0,0.0
05/09/2022,02:33:40,0.000,0.0,0.0,0.0
05/09/2022,02:35:32,-0.000,0.0,0.0,0.0
05/09/2022,02:36:32,0.001,0.0,0.0,0.0
05/09/2022,02:37:32,0.001,0.0,0.0,0.0
05/09/2022,02:38:32,0.000,0.0,0.0,0.0
05/09/2022,02:39:31,0.000,0.0,0.0,0.0
05/09/2022,02:40:31,-0.000,0.0,0.0,0.0
05/09/2022,02:41:32,-0.000,0.0,0.0,0.0
05/09/2022,02:42:31,-0.000,0.0,0.0,0.0
05/09/2022,02:43:41,0.000,0.0,0.0,0.0
05/09/2022,02:45:32,0.000,0.0,0.0,0.0
05/09/2022,02:46:32,-0.000,0.0,0.0,0.0
05/09/2022,02:47:31,-0.001,0.0,0.0,0.0
05/09/2022,02:48:32,0.000,0.0,0.0,0.0
05/09/2022,02:49:32,0.000,0.0,0.0,0.0
05/09/2022,02:50:32,0.000,0.0,0.0,0.0
05/09/2022,02:51:32,0.000,0.0,0.0,0.0
05/09/2022,02:52:31,0.000,0.0,0.0,0.0
05/09/2022,02:53:31,0.000,0.0,0.0,0.0
05/09/2022,02:54:32,0.000,0.0,0.0,0.0
05/09/2022,02:55:32,-0.000,0.0,0.0,0.0
05/09/2022,02:56:31,0.000,0.0,0.0,0.0
05/09/2022,02:57:31,0.000,0.0,0.0,0.0
05/09/2022,02:58:40,0.000,0.0,0.0,0.0
05/09/2022,02:59:32,0.000,0.0,0.0,0.0
05/09/2022,03:00:31,0.001,0.0,0.0,0.0
05/09/2022,03:01:40,0.000,0.0,0.0,0.0
05/09/2022,03:03:32,0.000,0.0,0.0,0.0
05/09/2022,03:04:32,0.000,0.0,0.0,0.0
05/09/2022,03:05:31,-0.000,0.0,0.0,0.0
05/09/2022,03:06:31,-0.000,0.0,0.0,0.0
05/09/2022,03:07:32,0.000,0.0,0.0,0.0
05/09/2022,03:08:32,0.000,0.0,0.0,0.0
05/09/2022,03:09:31,-0.000,0.0,0.0,0.0
05/09/2022,03:10:31,0.001,0.0,0.0,0.0
05/09/2022,03:11:31,0.000,0.0,0.0,0.0
05/09/2022,03:12:32,0.000,0.0,0.0,0.0
05/09/2022,03:13:40,0.001,0.0,0.0,0.0
05/09/2022,03:15:33,-0.000,0.0,0.0,0.0
05/09/2022,03:16:32,0.000,0.0,0.0,0.0
05/09/2022,03:17:32,0.000,0.0,0.0,0.0
05/09/2022,03:18:32,0.000,0.0,0.0,0.0
05/09/2022,03:19:32,0.000,0.0,0.0,0.0
05/09/2022,03:20:31,-0.000,0.0,0.0,0.0
05/09/2022,03:21:32,0.000,0.0,0.0,0.0
05/09/2022,03:22:31,0.000,0.0,0.0,0.0
05/09/2022,03:23:32,0.000,0.0,0.0,0.0
05/09/2022,03:24:32,0.000,0.0,0.0,0.0
05/09/2022,03:25:31,0.000,0.0,0.0,0.0
05/09/2022,03:26:31,0.001,0.0,0.0,0.0
05/09/2022,03:27:32,0.000,0.0,0.0,0.0
05/09/2022,03:28:30,-0.000,0.0,0.0,0.0
05/09/2022,03:29:30,0.000,0.0,0.0,0.0
05/09/2022,03:30:32,0.001,0.0,0.0,0.0
05/09/2022,03:31:40,0.000,0.0,0.0,0.0
05/09/2022,03:32:32,0.000,0.0,0.0,0.0
05/09/2022,03:33:32,0.000,0.0,0.0,0.0
05/09/2022,03:34:40,0.000,0.0,0.0,0.0
05/09/2022,03:36:33,0.000,0.0,0.0,0.0
05/09/2022,03:37:31,0.001,0.0,0.0,0.0
05/09/2022,03:38:32,-0.000,0.0,0.0,0.0
05/09/2022,03:39:32,-0.000,0.0,0.0,0.0
05/09/2022,03:40:31,0.000,0.0,0.0,0.0
05/09/2022,03:41:31,0.001,0.0,0.0,0.0
05/09/2022,03:42:32,0.000,0.0,0.0,0.0
05/09/2022,03:43:32,0.000,0.0,0.0,0.0
05/09/2022,03:44:40,0.001,0.0,0.0,0.0
05/09/2022,03:46:32,0.000,0.0,0.0,0.0
05/09/2022,03:47:31,0.000,0.0,0.0,0.0
05/09/2022,03:48:30,0.001,0.0,0.0,0.0
05/09/2022,03:49:29,-0.000,0.0,0.0,0.0
05/09/2022,03:50:32,-0.000,0.0,0.0,0.0
05/09/2022,03:51:33,0.001,0.0,0.0,0.0
05/09/2022,03:52:40,0.000,0.0,0.0,0.0
05/09/2022,03:54:33,0.000,0.0,0.0,0.0
05/09/2022,03:55:32,0.001,0.0,0.0,0.0
05/09/2022,03:56:32,0.001,0.0,0.0,0.0
05/09/2022,03:57:32,-0.000,0.0,0.0,0.0
05/09/2022,03:58:32,0.000,0.0,0.0,0.0
05/09/2022,03:59:40,0.000,0.0,0.0,0.0
05/09/2022,04:01:32,0.000,0.0,0.0,0.0
05/09/2022,04:02:31,0.000,0.0,0.0,0.0
05/09/2022,04:03:32,0.000,0.0,0.0,0.0
05/09/2022,04:04:32,0.000,0.0,0.0,0.0
05/09/2022,04:05:31,-0.000,0.0,0.0,0.0
05/09/2022,04:06:31,0.000,0.0,0.0,0.0
05/09/2022,04:07:32,0.000,0.0,0.0,0.0
05/09/2022,04:08:32,0.000,0.0,0.0,0.0
05/09/2022,04:09:32,0.000,0.0,0.0,0.0
05/09/2022,04:10:32,0.001,0.0,0.0,0.0
05/09/2022,04:11:31,0.001,0.0,0.0,0.0
05/09/2022,04:12:31,-0.000,0.0,0.0,0.0
05/09/2022,04:13:32,0.000,0.0,0.0,0.0
05/09/2022,04:14:38,-0.000,0.0,0.0,0.0
05/09/2022,04:15:38,0.000,0.0,0.0,0.0
05/09/2022,04:16:32,-0.000,0.0,0.0,0.0
05/09/2022,04:17:40,-0.000,0.0,0.0,0.0
05/09/2022,04:19:32,0.000,0.0,0.0,0.0
05/09/2022,04:20:31,0.001,0.0,0.0,0.0
05/09/2022,04:21:33,0.001,0.0,0.0,0.0
05/09/2022,04:22:32,0.001,0.0,0.0,0.0
05/09/2022,04:23:31,0.000,0.0,0.0,0.0
05/09/2022,04:24:31,0.001,0.0,0.0,0.0
05/09/2022,04:25:32,0.001,0.0,0.0,0.0
05/09/2022,04:26:32,0.000,0.0,0.0,0.0
05/09/2022,04:27:32,0.000,0.0,0.0,0.0
05/09/2022,04:28:32,0.001,0.0,0.0,0.0
05/09/2022,04:29:32,0.000,0.0,0.0,0.0
05/09/2022,04:30:32,0.000,0.0,0.0,0.0
05/09/2022,04:31:32,0.001,0.0,0.0,0.0
05/09/2022,04:32:32,0.001,0.0,0.0,0.0
05/09/2022,04:33:32,0.000,0.0,0.0,0.0
05/09/2022,04:34:32,0.000,0.0,0.0,0.0
05/09/2022,04:35:40,0.000,0.0,0.0,0.0
05/09/2022,04:36:32,0.001,0.0,0.0,0.0
05/09/2022,04:37:32,0.001,0.0,0.0,0.0
05/09/2022,04:38:31,-0.000,0.0,0.0,0.0
05/09/2022,04:39:31,0.001,0.0,0.0,0.0
05/09/2022,04:40:32,-0.000,0.0,0.0,0.0
05/09/2022,04:41:31,0.000,0.0,0.0,0.0
05/09/2022,04:42:32,0.000,0.0,0.0,0.0
05/09/2022,04:43:32,0.000,0.0,0.0,0.0
05/09/2022,04:44:32,0.000,0.0,0.0,0.0
05/09/2022,04:45:40,0.001,0.0,0.0,0.0
05/09/2022,04:47:32,0.000,0.0,0.0,0.0
05/09/2022,04:48:32,-0.000,0.0,0.0,0.0
05/09/2022,04:49:32,0.000,0.0,0.0,0.0
05/09/2022,04:50:32,0.001,0.0,0.0,0.0
05/09/2022,04:51:32,0.000,0.0,0.0,0.0
05/09/2022,04:52:32,-0.000,0.0,0.0,0.0
05/09/2022,04:53:32,0.001,0.0,0.0,0.0
05/09/2022,04:54:32,0.000,0.0,0.0,0.0
05/09/2022,04:55:32,0.000,0.0,0.0,0.0
05/09/2022,04:56:32,-0.000,0.0,0.0,0.0
05/09/2022,04:57:31,0.001,0.0,0.0,0.0
05/09/2022,04:58:31,0.000,0.0,0.0,0.0
05/09/2022,04:59:30,-0.000,0.0,0.0,0.0
05/09/2022,05:00:30,0.000,0.0,0.0,0.0
05/09/2022,05:01:32,0.000,0.0,0.0,0.0
05/09/2022,05:02:31,0.000,0.0,0.0,0.0
05/09/2022,05:03:40,0.000,0.0,0.0,0.0
05/09/2022,05:05:32,0.000,0.0,0.0,0.0
05/09/2022,05:06:31,0.000,0.0,0.0,0.0
05/09/2022,05:07:32,0.000,0.0,0.0,0.0
05/09/2022,05:08:32,0.001,0.0,0.0,0.0
05/09/2022,05:09:32,0.001,0.0,0.0,0.0
05/09/2022,05:10:32,0.001,0.0,0.0,0.0
05/09/2022,05:11:31,-0.000,0.0,0.0,0.0
05/09/2022,05:12:40,0.000,0.0,0.0,0.0
05/09/2022,05:13:32,0.001,0.0,0.0,0.0
05/09/2022,05:14:32,0.001,0.0,0.0,0.0
05/09/2022,05:15:31,-0.000,0.0,0.0,0.0
05/09/2022,05:16:33,0.001,0.0,0.0,0.0
05/09/2022,05:17:31,0.001,0.0,0.0,0.0
05/09/2022,05:18:32,0.002,0.0,0.0,0.0
05/09/2022,05:19:32,0.001,0.0,0.0,0.0
05/09/2022,05:20:32,0.002,0.0,0.0,0.0
05/09/2022,05:21:40,0.001,0.0,0.0,0.0
05/09/2022,05:23:33,0.002,0.0,0.0,0.0
05/09/2022,05:24:32,0.001,0.0,0.0,0.0
05/09/2022,05:25:31,0.002,0.0,0.0,0.0
05/09/2022,05:26:31,0.001,0.0,0.0,0.0
05/09/2022,05:27:32,0.001,0.0,0.0,0.0
05/09/2022,05:28:19,0.001,0.0,0.0,0.0
05/09/2022,05:29:33,0.003,0.0,0.0,0.0
05/09/2022,05:30:32,0.002,0.0,0.0,0.0
05/09/2022,05:31:32,0.002,0.0,0.0,0.0
05/09/2022,05:32:32,0.001,0.0,0.0,0.0
05/09/2022,05:33:32,0.003,0.0,0.0,0.0
05/09/2022,05:34:31,0.003,0.0,0.0,0.0
05/09/2022,05:35:32,0.003,0.0,0.0,0.0
05/09/2022,05:36:32,0.004,0.0,0.0,0.0
05/09/2022,05:37:40,0.003,0.0,0.0,0.0
05/09/2022,05:39:33,0.004,0.0,0.0,0.0
05/09/2022,05:40:32,0.004,0.0,0.0,0.0
05/09/2022,05:41:32,0.004,0.0,0.0,0.0
05/09/2022,05:42:31,0.005,0.0,0.0,0.0
05/09/2022,05:43:32,0.005,0.0,0.0,0.0
05/09/2022,05:44:31,0.006,0.0,0.0,0.0
05/09/2022,05:45:32,0.005,0.0,0.0,0.0
05/09/2022,05:46:32,0.006,0.0,0.0,0.0
05/09/2022,05:47:32,0.006,0.0,0.0,0.0
05/09/2022,05:48:32,0.006,0.0,0.0,0.0
05/09/2022,05:49:32,0.007,0.0,0.0,0.0
05/09/2022,05:50:32,0.007,0.0,0.0,0.0
05/09/2022,05:51:32,0.007,0.0,0.001,0.001
05/09/2022,05:52:31,0.008,0.0,0.001,0.0
05/09/2022,05:53:32,0.009,0.0,0.001,0.0
05/09/2022,05:54:32,0.009,0.0,0.001,0.0
05/09/2022,05:55:32,0.009,0.0,0.001,0.0
05/09/2022,05:56:30,0.009,0.0,0.001,0.0
05/09/2022,05:57:30,0.010,0.0,0.001,0.0
05/09/2022,05:58:32,0.011,0.0,0.002,0.001
05/09/2022,05:59:32,0.011,0.0,0.002,0.0
05/09/2022,06:00:32,0.012,0.0,0.002,0.0
05/09/2022,06:01:41,0.012,0.0,0.002,0.0
05/09/2022,06:03:32,0.013,0.0,0.003,0.001
05/09/2022,06:04:32,0.015,0.0,0.003,0.0
05/09/2022,06:05:31,0.015,0.0,0.003,0.0
05/09/2022,06:06:32,0.015,0.0,0.003,0.0
05/09/2022,06:07:32,0.016,0.0,0.004,0.001
05/09/2022,06:08:32,0.016,0.0,0.004,0.0
05/09/2022,06:09:32,0.017,0.0,0.004,0.0
05/09/2022,06:10:32,0.018,0.0,0.004,0.0
05/09/2022,06:11:32,0.018,0.0,0.005,0.001
05/09/2022,06:12:32,0.019,0.0,0.005,0.0
05/09/2022,06:13:31,0.020,0.0,0.005,0.0
05/09/2022,06:14:40,0.021,0.0,0.006,0.001
05/09/2022,06:15:32,0.022,0.0,0.006,0.0
05/09/2022,06:16:40,0.022,0.0,0.006,0.0
05/09/2022,06:17:40,0.023,0.0,0.007,0.001
05/09/2022,06:18:31,0.024,0.0,0.007,0.0
05/09/2022,06:19:32,0.025,0.0,0.008,0.001
05/09/2022,06:20:32,0.026,0.0,0.008,0.0
05/09/2022,06:21:31,0.027,0.0,0.008,0.0
05/09/2022,06:22:31,0.027,0.0,0.009,0.001
05/09/2022,06:23:32,0.028,0.0,0.009,0.0
05/09/2022,06:24:32,0.029,0.0,0.01,0.001
05/09/2022,06:25:32,0.030,0.0,0.01,0.0
05/09/2022,06:26:32,0.031,0.0,0.011,0.001
05/09/2022,06:27:32,0.033,0.0,0.011,0.0
05/09/2022,06:28:32,0.033,0.0,0.012,0.001
05/09/2022,06:29:40,0.036,0.0,0.012,0.0
05/09/2022,06:30:33,0.036,0.0,0.013,0.001
05/09/2022,06:31:32,0.037,0.0,0.014,0.001
05/09/2022,06:32:32,0.038,0.0,0.014,0.0
05/09/2022,06:33:40,0.040,0.0,0.015,0.001
05/09/2022,06:35:33,0.042,0.0,0.016,0.001
05/09/2022,06:36:32,0.043,0.0,0.017,0.001
05/09/2022,06:37:32,0.045,0.0,0.018,0.001
05/09/2022,06:38:32,0.045,0.0,0.018,0.0
05/09/2022,06:39:32,0.047,0.0,0.019,0.001
05/09/2022,06:40:32,0.048,0.0,0.02,0.001
05/09/2022,06:41:40,0.050,0.0,0.021,0.001
05/09/2022,06:43:33,0.052,0.0,0.022,0.001
05/09/2022,06:44:32,0.054,0.0,0.023,0.001
05/09/2022,06:45:32,0.055,0.0,0.024,0.001
05/09/2022,06:46:32,0.056,0.0,0.025,0.001
05/09/2022,06:47:32,0.058,0.0,0.026,0.001
05/09/2022,06:48:32,0.059,0.0,0.027,0.001
05/09/2022,06:49:32,0.061,0.0,0.028,0.001
05/09/2022,06:50:32,0.062,0.0,0.029,0.001
05/09/2022,06:51:32,0.063,0.0,0.03,0.001
05/09/2022,06:52:32,0.065,0.0,0.031,0.001
05/09/2022,06:53:32,0.067,0.0,0.032,0.001
05/09/2022,06:54:40,0.067,0.0,0.034,0.002
05/09/2022,06:56:33,0.069,0.0,0.036,0.002
05/09/2022,06:57:32,0.071,0.0,0.037,0.001
05/09/2022,06:58:32,0.073,0.0,0.038,0.001
05/09/2022,06:59:32,0.075,0.0,0.039,0.001
05/09/2022,07:00:41,0.077,0.0,0.041,0.002
05/09/2022,07:02:33,0.082,0.0,0.043,0.002
05/09/2022,07:03:32,0.085,0.0,0.045,0.002
05/09/2022,07:04:32,0.086,0.0,0.046,0.001
05/09/2022,07:05:32,0.088,0.0,0.048,0.002
05/09/2022,07:06:32,0.091,0.0,0.049,0.001
05/09/2022,07:07:32,0.092,0.0,0.05,0.001
05/09/2022,07:08:32,0.095,0.0,0.052,0.002
05/09/2022,07:09:32,0.096,0.0,0.054,0.002
05/09/2022,07:10:34,0.098,0.0,0.055,0.001
05/09/2022,07:11:32,0.101,0.0,0.057,0.002
05/09/2022,07:12:38,0.103,0.0,0.059,0.002
05/09/2022,07:13:31,0.106,0.0,0.06,0.001
05/09/2022,07:14:32,0.113,0.0,0.062,0.002
05/09/2022,07:15:40,0.116,0.0,0.064,0.002
05/09/2022,07:17:33,0.120,0.0,0.068,0.004
05/09/2022,07:18:32,0.121,0.0,0.07,0.002
05/09/2022,07:19:32,0.124,0.0,0.072,0.002
05/09/2022,07:20:32,0.128,0.0,0.074,0.002
05/09/2022,07:21:32,0.130,0.0,0.076,0.002
05/09/2022,07:22:32,0.134,0.0,0.079,0.003
05/09/2022,07:23:32,0.135,0.0,0.081,0.002
05/09/2022,07:24:34,0.140,0.0,0.083,0.002
05/09/2022,07:25:30,0.133,0.0,0.085,0.002
05/09/2022,07:26:30,0.138,0.0,0.088,0.003
05/09/2022,07:27:32,0.142,0.0,0.09,0.002
05/09/2022,07:28:40,0.141,0.0,0.093,0.003
05/09/2022,07:30:34,0.145,0.0,0.097,0.004
05/09/2022,07:31:41,0.147,0.0,0.1,0.003
05/09/2022,07:33:32,0.155,0.0,0.105,0.005
05/09/2022,07:34:32,0.161,0.0,0.107,0.002
05/09/2022,07:35:32,0.172,0.0,0.11,0.003
05/09/2022,07:36:32,0.179,0.0,0.113,0.003
05/09/2022,07:37:32,0.183,0.0,0.116,0.003
05/09/2022,07:38:32,0.187,0.0,0.119,0.003
05/09/2022,07:39:32,0.190,0.0,0.122,0.003
05/09/2022,07:40:32,0.194,0.0,0.125,0.003
05/09/2022,07:41:32,0.186,0.0,0.129,0.004
05/09/2022,07:42:32,0.191,0.0,0.132,0.003
05/09/2022,07:43:40,0.195,0.0,0.135,0.003
05/09/2022,07:45:33,0.214,0.0,0.142,0.007
05/09/2022,07:46:40,0.219,1.0,0.146,0.004
05/09/2022,07:47:32,0.223,1.0,0.149,0.003
05/09/2022,07:48:32,0.227,1.0,0.153,0.004
05/09/2022,07:49:32,0.231,1.0,0.157,0.004
05/09/2022,07:50:32,0.235,1.0,0.161,0.004
05/09/2022,07:51:32,0.238,1.0,0.164,0.003
05/09/2022,07:52:32,0.233,1.0,0.168,0.004
05/09/2022,07:53:32,0.229,1.0,0.172,0.004
05/09/2022,07:54:32,0.226,1.0,0.176,0.004
05/09/2022,07:55:32,0.235,1.0,0.18,0.004
05/09/2022,07:56:32,0.240,1.0,0.184,0.004
05/09/2022,07:57:32,0.243,1.0,0.188,0.004
05/09/2022,07:58:40,0.248,1.0,0.193,0.005
05/09/2022,08:00:33,0.256,1.0,0.2,0.007
05/09/2022,08:01:40,0.270,1.0,0.205,0.005
05/09/2022,08:03:33,0.285,1.0,0.214,0.009
05/09/2022,08:04:40,0.290,1.0,0.219,0.005
05/09/2022,08:05:32,0.300,1.0,0.224,0.005
05/09/2022,08:06:32,0.307,1.0,0.229,0.005
05/09/2022,08:07:32,0.310,1.0,0.234,0.005
05/09/2022,08:08:32,0.311,1.0,0.239,0.005
05/09/2022,08:09:32,0.330,1.0,0.244,0.005
05/09/2022,08:10:32,0.335,1.0,0.25,0.006
05/09/2022,08:11:32,0.351,1.0,0.256,0.006
05/09/2022,08:12:32,0.334,1.0,0.261,0.005
05/09/2022,08:13:32,0.331,1.0,0.267,0.006
05/09/2022,08:14:41,0.345,1.0,0.273,0.006
05/09/2022,08:16:32,0.369,1.0,0.285,0.012
05/09/2022,08:17:32,0.395,1.0,0.291,0.006
05/09/2022,08:18:32,0.389,1.0,0.298,0.007
05/09/2022,08:19:32,0.367,1.0,0.304,0.006
05/09/2022,08:20:32,0.385,1.0,0.31,0.006
05/09/2022,08:21:33,0.428,1.0,0.317,0.007
05/09/2022,08:22:32,0.441,1.0,0.324,0.007
05/09/2022,08:23:32,0.452,1.0,0.332,0.008
05/09/2022,08:24:32,0.446,1.0,0.339,0.007
05/09/2022,08:25:33,0.465,1.0,0.347,0.008
05/09/2022,08:26:33,0.467,1.0,0.355,0.008
05/09/2022,08:27:32,0.462,1.0,0.362,0.007
05/09/2022,08:28:32,0.463,1.0,0.37,0.008
05/09/2022,08:29:41,0.462,1.0,0.379,0.009
05/09/2022,08:31:33,0.475,1.0,0.394,0.015
05/09/2022,08:32:32,0.463,1.0,0.401,0.007
05/09/2022,08:33:31,0.462,1.0,0.409,0.008
05/09/2022,08:34:30,0.451,1.0,0.416,0.007
05/09/2022,08:35:41,0.453,1.0,0.425,0.009
05/09/2022,08:37:32,0.417,1.0,0.438,0.013
05/09/2022,08:38:32,0.466,1.0,0.445,0.007
05/09/2022,08:39:32,0.470,1.0,0.453,0.008
05/09/2022,08:40:32,0.474,1.0,0.461,0.008
05/09/2022,08:41:32,0.451,1.0,0.469,0.008
05/09/2022,08:42:32,0.417,1.0,0.476,0.007
05/09/2022,08:43:32,0.412,1.0,0.483,0.007
05/09/2022,08:44:33,0.397,1.0,0.49,0.007
05/09/2022,08:45:32,0.390,1.0,0.496,0.006
05/09/2022,08:46:32,0.387,1.0,0.503,0.007
05/09/2022,08:47:40,0.385,1.0,0.51,0.007
05/09/2022,08:49:33,0.420,1.0,0.523,0.013
05/09/2022,08:50:32,0.423,1.0,0.53,0.007
05/09/2022,08:51:32,0.423,1.0,0.537,0.007
05/09/2022,08:52:32,0.428,1.0,0.544,0.007
05/09/2022,08:59:36,0.445,1.0,0.596,0.052
05/09/2022,09:00:32,0.448,1.0,0.603,0.007
05/09/2022,09:01:33,0.440,1.0,0.61,0.007
05/09/2022,09:02:41,0.433,1.0,0.619,0.009
05/09/2022,09:04:33,0.447,1.0,0.632,0.013
05/09/2022,09:05:33,0.451,1.0,0.64,0.008
05/09/2022,09:06:49,0.462,1.0,0.649,0.009
05/09/2022,09:08:33,0.448,1.0,0.662,0.013
05/09/2022,09:09:32,0.510,1.0,0.67,0.008
05/09/2022,09:10:32,0.544,1.0,0.679,0.009
05/09/2022,09:11:32,0.555,1.0,0.688,0.009
05/09/2022,09:12:33,0.561,1.0,0.698,0.01
05/09/2022,09:13:33,0.554,1.0,0.707,0.009
05/09/2022,09:14:32,0.562,1.0,0.716,0.009
05/09/2022,09:15:32,0.620,1.0,0.726,0.01
05/09/2022,09:16:33,0.635,1.0,0.736,0.01
05/09/2022,09:17:41,0.618,1.0,0.748,0.012
05/09/2022,09:19:32,0.599,1.0,0.767,0.019
05/09/2022,09:20:32,0.612,1.0,0.777,0.01
05/09/2022,09:21:33,0.603,1.0,0.787,0.01
05/09/2022,09:22:33,0.608,1.0,0.798,0.011
05/09/2022,09:23:33,0.602,1.0,0.808,0.01
05/09/2022,09:24:32,0.594,1.0,0.818,0.01
05/09/2022,09:25:33,0.603,1.0,0.828,0.01
05/09/2022,09:26:32,0.621,1.0,0.838,0.01
05/09/2022,09:27:32,0.642,1.0,0.848,0.01
05/09/2022,09:28:33,0.638,1.0,0.859,0.011
05/09/2022,09:29:33,0.648,1.0,0.87,0.011
05/09/2022,09:30:32,0.666,2.0,0.88,0.01
05/09/2022,09:31:32,0.698,2.0,0.892,0.012
05/09/2022,09:32:40,0.710,2.0,0.904,0.012
05/09/2022,09:33:32,0.705,2.0,0.915,0.011
05/09/2022,09:34:33,0.714,2.0,0.926,0.011
05/09/2022,09:35:41,0.658,2.0,0.939,0.013
05/09/2022,09:37:33,0.653,2.0,0.96,0.021
05/09/2022,09:38:32,0.637,1.0,0.97,0.01
05/09/2022,09:39:32,0.626,1.0,0.981,0.011
05/09/2022,09:40:32,0.625,1.0,0.991,0.01
05/09/2022,09:41:32,0.632,1.0,1.002,0.011
05/09/2022,09:42:32,0.640,1.0,1.012,0.01
05/09/2022,09:43:32,0.643,1.0,1.023,0.011
05/09/2022,09:44:33,0.622,1.0,1.034,0.011
05/09/2022,09:45:33,0.654,2.0,1.044,0.01
05/09/2022,09:46:32,0.666,2.0,1.055,0.011
05/09/2022,09:47:33,0.684,2.0,1.066,0.011
05/09/2022,09:48:32,0.707,2.0,1.078,0.012
05/09/2022,09:49:32,0.731,2.0,1.09,0.012
05/09/2022,09:50:41,0.746,2.0,1.104,0.014
05/09/2022,09:52:33,0.708,2.0,1.127,0.023
05/09/2022,09:53:32,0.810,2.0,1.139,0.012
05/09/2022,09:54:32,0.841,2.0,1.153,0.014
05/09/2022,09:55:32,0.839,2.0,1.167,0.014
05/09/2022,09:56:32,0.853,2.0,1.181,0.014
05/09/2022,09:57:32,0.841,2.0,1.195,0.014
05/09/2022,09:58:32,0.849,2.0,1.209,0.014
05/09/2022,09:59:32,0.852,2.0,1.224,0.015
05/09/2022,10:00:33,0.881,2.0,1.239,0.015
05/09/2022,10:01:33,0.897,2.0,1.253,0.014
05/09/2022,10:02:32,0.901,2.0,1.268,0.015
05/09/2022,10:03:32,0.901,2.0,1.284,0.016
05/09/2022,10:04:41,0.925,2.0,1.301,0.017
05/09/2022,10:06:42,0.936,2.0,1.332,0.031
05/09/2022,10:08:33,0.949,2.0,1.361,0.029
05/09/2022,10:09:34,0.949,2.0,1.377,0.016
05/09/2022,10:10:33,0.948,2.0,1.392,0.015
05/09/2022,10:11:32,0.961,2.0,1.408,0.016
05/09/2022,10:12:32,0.873,2.0,1.424,0.016
05/09/2022,10:13:32,0.848,2.0,1.439,0.015
05/09/2022,10:14:32,0.931,2.0,1.455,0.016
05/09/2022,10:15:32,0.895,2.0,1.472,0.017
05/09/2022,10:16:32,1.036,2.0,1.487,0.015
05/09/2022,10:17:33,1.077,2.0,1.505,0.018
05/09/2022,10:18:32,1.048,2.0,1.523,0.018
05/09/2022,10:19:33,1.048,2.0,1.54,0.017
05/09/2022,10:20:41,1.024,2.0,1.56,0.02
05/09/2022,10:21:32,0.996,2.0,1.574,0.014
05/09/2022,10:22:33,1.000,2.0,1.59,0.016
05/09/2022,10:23:41,1.035,2.0,1.609,0.019
05/09/2022,10:25:33,1.107,3.0,1.643,0.034
05/09/2022,10:26:33,1.120,3.0,1.661,0.018
05/09/2022,10:27:32,1.140,3.0,1.68,0.019
05/09/2022,10:28:33,1.131,3.0,1.699,0.019
05/09/2022,10:29:32,1.143,3.0,1.718,0.019
05/09/2022,10:30:33,0.840,2.0,1.734,0.016
05/09/2022,10:31:32,0.817,2.0,1.748,0.014
05/09/2022,10:32:33,1.127,3.0,1.762,0.014
05/09/2022,10:33:32,0.894,2.0,1.779,0.017
05/09/2022,10:34:30,1.316,3.0,1.797,0.018
05/09/2022,10:35:31,1.327,3.0,1.818,0.021
05/09/2022,10:36:32,1.325,3.0,1.839,0.021
05/09/2022,10:37:32,1.315,3.0,1.861,0.022
05/09/2022,10:38:32,1.332,3.0,1.883,0.022
05/09/2022,10:39:33,0.905,2.0,1.903,0.02
05/09/2022,10:40:33,1.240,3.0,1.923,0.02
05/09/2022,10:41:41,1.145,3.0,1.945,0.022
05/09/2022,10:43:34,0.919,2.0,1.977,0.032
05/09/2022,10:44:32,0.749,2.0,1.99,0.013
05/09/2022,10:45:33,0.884,2.0,2.003,0.013
05/09/2022,10:46:33,0.880,2.0,2.017,0.014
05/09/2022,10:47:49,0.777,2.0,2.035,0.018
05/09/2022,10:49:33,0.982,2.0,2.059,0.024
05/09/2022,10:50:32,1.028,2.0,2.075,0.016
05/09/2022,10:51:33,0.856,2.0,2.09,0.015
05/09/2022,10:52:33,1.002,2.0,2.105,0.015
05/09/2022,10:53:32,1.068,2.0,2.122,0.017
05/09/2022,10:54:32,1.096,3.0,2.139,0.017
05/09/2022,10:55:30,1.111,3.0,2.157,0.018
05/09/2022,10:56:30,1.059,2.0,2.176,0.019
05/09/2022,10:57:32,1.031,2.0,2.194,0.018
05/09/2022,10:58:32,1.142,3.0,2.212,0.018
05/09/2022,10:59:32,1.173,3.0,2.231,0.019
05/09/2022,11:00:32,1.151,3.0,2.251,0.02
05/09/2022,11:01:33,1.285,3.0,2.271,0.02
05/09/2022,11:02:33,0.903,2.0,2.289,0.018
05/09/2022,11:03:32,0.810,2.0,2.303,0.014
05/09/2022,11:04:41,0.797,2.0,2.319,0.016